Wind_Speed
44 41 41 42 41 42 43 38 35 34 29 27 27 21 23 25 22 18 22 26 27 23 21 20 17 18 21 21 19 19 18 20 23 21 15 16 20 21 18 16 16 17 15
44 43 42 41 42 42 43 41 38 35 37 32 30 30 24 25 24 20 19 27 27 28 26 25 24 22 24 24 25 23 23 23 23 21 21 19 24 22 19 16 16 19 21
48 45 43 41 42 42 41 40 40 38 37 38 38 35 33 29 26 25 22 21 27 30 29 29 28 27 28 29 30 30 28 26 26 27 24 24 23 21 21 20 19 17 16
48 48 46 44 43 41 40 39 39 40 39 38 38 39 40 39 37 32 29 27 26 28 33 35 35 34 33 32 31 34 35 34 32 32 31 30 29 25 25 25 24 21 15
46 45 45 43 42 41 40 41 41 40 41 41 41 41 41 41 41 41 37 35 33 32 32 36 39 39 39 38 36 35 36 39 40 38 37 36 34 35 34 29 26 23 20
47 46 41 40 40 41 40 40 40 39 39 42 44 44 44 44 43 42 40 38 38 38 38 36 38 39 40 40 40 38 37 38 42 45 44 42 39 38 33 30 27 27 27
48 47 46 44 41 38 37 38 39 40 39 40 40 40 43 44 44 44 42 41 42 42 42 42 43 43 43 42 42 41 41 41 40 40 43 46 46 41 35 30 28 27 31
46 48 47 47 45 42 41 41 38 39 41 41 42 42 42 42 40 42 42 42 44 45 45 46 47 47 46 45 44 44 45 44 43 43 43 44 45 43 37 30 26 25 30
46 45 47 48 47 47 46 46 42 41 41 43 44 44 45 46 44 42 41 44 47 50 49 48 50 52 51 48 47 47 47 48 46 46 46 47 45 42 40 34 36 33 38
43 44 43 41 41 45 46 46 45 43 42 41 43 44 45 46 47 46 44 44 48 51 50 52 54 54 52 50 49 48 52 54 50 51 51 50 52 46 48 49 43 42 35
32 27 29 36 43 42 42 44 45 45 43 43 42 43 44 45 45 44 44 45 50 49 50 50 51 49 44 44 46 48 51 49 52 53 55 53 53 59 59 56 46 41 41
25 30 31 30 31 38 41 42 42 43 43 43 42 42 43 44 44 43 42 42 41 43 47 46 44 36 30 31 32 33 34 36 49 54 57 57 55 56 63 55 45 39 33
18 24 24 32 29 28 34 41 40 40 42 43 43 43 43 42 42 41 40 37 34 37 38 39 40 40 38 36 36 32 30 35 43 48 52 54 56 57 55 56 45 21 28
17 22 22 27 28 27 27 33 36 40 43 43 43 42 40 37 36 34 32 31 28 28 28 30 34 38 39 41 43 44 44 39 37 42 49 52 52 53 48 30 17 22 25
23 23 25 28 29 29 28 30 35 36 39 39 40 37 34 33 31 29 25 23 21 20 20 23 28 31 33 33 33 32 31 34 39 43 40 42 42 39 17 6 26 23 26
22 22 24 28 30 30 30 30 33 32 34 33 30 26 25 29 26 23 21 27 23 21 23 25 26 27 27 29 31 32 32 28 25 22 26 14 5 10 7 21 21 23 24
23 22 24 27 28 30 32 32 29 33 33 27 27 27 26 27 26 23 20 22 22 21 20 19 21 24 27 28 27 23 18 15 10 6 10 4 6 14 18 19 21 21 19
24 24 24 26 28 31 31 30 29 28 30 27 27 26 25 22 21 17 15 15 16 17 21 21 21 20 18 13 6 3 3 5 8 7 7 9 8 16 18 23 18 20 21
22 23 23 24 25 31 31 30 27 28 25 27 29 27 25 24 23 22 19 19 20 19 17 15 13 9 5 3 3 6 8 11 9 8 10 12 13 18 24 17 22 24 22
18 20 20 25 28 32 33 31 28 25 21 19 22 20 21 21 18 18 16 14 13 11 9 7 5 5 6 9 11 9 7 5 8 9 8 11 12 14 17 22 23 22 22
15 20 18 23 24 28 32 29 26 20 14 15 15 12 13 14 12 11 10 9 7 8 7 6 5 8 6 5 5 7 7 6 12 9 12 8 14 19 19 20 20 20 22
20 18 22 23 27 27 26 23 17 17 15 12 10 10 10 11 11 10 9 8 6 8 7 7 7 6 2 5 6 7 9 7 11 17 14 16 23 19 15 18 19 18 20
17 16 17 20 22 23 21 20 17 15 11 8 8 10 10 6 3 5 7 9 8 7 7 7 7 7 5 3 5 5 6 5 7 14 17 21 21 21 21 21 22 22 22
22 28 27 27 26 25 25 26 23 20 16 13 14 13 12 9 6 5 7 6 5 4 6 6 3 5 6 5 5 7 7 6 7 11 12 15 19 19 22 18 18 22 21
33 30 31 27 24 22 21 19 21 21 18 16 16 16 13 14 11 8 6 4 6 6 4 6 4 6 5 5 5 4 8 7 7 8 16 17 16 18 21 21 20 20 22
34 34 32 31 27 22 19 19 19 16 15 14 16 15 14 13 12 11 14 14 12 9 8 10 7 9 8 8 6 7 9 11 11 12 14 16 16 18 20 21 21 20 21
Wind_Direction
225 224 225 228 225 227 230 232 228 226 220 223 230 233 231 234 240 250 235 228 232 236 240 238 231 225 223 227 228 235 232 230 238 238 235 238 238 241 251 263 267 271 278
228 228 227 230 233 231 229 233 235 230 225 220 226 232 233 235 239 246 247 231 228 231 239 245 246 239 233 229 233 236 240 238 235 236 231 232 229 238 250 266 276 276 269
226 229 232 232 233 236 237 233 235 236 231 226 223 232 238 241 241 244 248 247 240 238 241 242 245 247 248 242 238 241 244 243 243 242 238 241 242 241 239 247 260 264 271
225 229 231 234 235 235 239 240 235 235 235 233 232 232 237 241 245 248 249 250 248 244 246 249 249 250 253 253 248 245 246 247 245 244 242 239 243 246 249 252 253 259 262
225 227 231 234 236 237 237 240 242 238 240 241 239 240 241 241 244 248 251 252 253 252 251 250 254 257 258 258 257 253 248 246 248 246 245 244 241 242 247 251 255 262 258
220 227 231 233 235 237 238 239 241 244 240 241 245 245 244 245 247 250 252 253 255 255 256 257 258 260 262 262 262 260 257 254 251 248 250 249 249 244 243 243 250 250 251
223 225 229 231 234 237 239 239 241 242 244 245 243 245 247 248 248 249 252 253 255 257 259 260 260 260 262 263 265 267 264 262 259 259 256 255 255 251 247 237 237 250 256
224 226 228 231 235 237 237 239 241 243 245 245 248 247 248 249 249 249 251 253 257 259 262 264 264 265 265 264 265 266 267 268 266 259 258 259 258 257 249 242 237 252 259
224 229 232 233 235 237 239 239 242 244 245 247 249 251 250 251 250 250 250 250 253 258 262 263 265 268 269 267 268 270 273 270 271 270 267 267 261 252 245 224 234 265 266
224 229 233 235 238 239 241 242 243 246 249 251 252 253 255 256 256 255 253 251 254 258 261 265 265 265 267 265 261 264 269 272 274 273 268 261 257 244 235 240 239 253 258
225 228 233 238 242 243 242 242 243 245 248 250 254 255 257 259 260 261 259 255 257 258 262 264 264 264 264 265 264 264 265 274 273 272 273 266 253 246 240 240 234 243 261
237 241 240 239 240 241 242 242 242 243 246 250 252 255 257 259 262 263 261 259 259 259 262 262 264 268 274 269 270 270 273 273 267 268 268 265 258 252 243 245 234 250 251
255 247 248 243 242 238 239 238 239 241 245 248 250 253 257 257 260 262 263 263 262 260 263 264 266 263 261 264 269 270 272 268 267 267 267 270 270 267 249 242 233 223 246
271 252 253 245 242 240 237 238 238 240 242 243 247 250 252 256 260 261 262 262 261 258 258 262 265 265 266 269 271 271 276 276 270 272 276 277 271 254 237 234 244 208 204
274 262 249 247 243 243 230 232 235 240 243 245 246 246 250 255 259 261 262 263 263 265 259 257 258 262 267 272 278 282 281 277 275 277 285 270 253 229 206 213 217 197 206
275 268 244 241 236 235 234 231 229 233 238 239 241 249 252 248 255 257 258 260 256 253 249 253 261 264 267 276 280 283 283 288 289 292 275 263 204 159 229 210 198 198 198
262 264 241 234 231 229 231 230 229 226 233 232 235 238 240 243 247 254 243 248 247 241 246 251 255 263 269 272 281 287 295 300 309 301 258 230 185 204 189 199 184 190 200
265 254 246 237 226 228 229 230 228 231 231 227 222 229 226 221 228 228 234 237 243 253 260 263 266 268 277 281 283 294 311 292 266 253 230 216 198 190 183 183 191 190 185
262 247 239 225 226 222 227 225 223 220 228 228 220 218 222 228 235 244 252 258 260 256 252 253 262 260 255 253 256 276 271 279 269 217 211 216 198 189 188 206 191 177 178
255 237 238 224 224 219 210 207 203 208 209 206 216 216 219 228 233 243 247 243 241 242 247 256 253 253 258 253 262 264 252 236 193 187 198 211 211 220 197 183 177 178 186
230 218 199 188 179 173 174 175 171 169 169 188 200 202 203 215 220 229 236 241 247 234 214 230 246 271 248 221 220 179 165 168 182 196 185 205 197 183 178 181 179 189 194
224 172 172 164 161 154 156 158 156 157 163 183 191 209 212 234 245 245 226 221 225 199 208 230 248 210 245 251 240 250 250 223 218 203 219 203 189 186 187 193 193 194 204
189 182 163 149 145 141 144 137 146 155 169 203 216 202 201 207 216 222 198 168 164 170 191 196 206 235 276 198 169 174 172 166 146 164 175 178 185 195 196 205 212 210 209
164 150 136 135 131 133 130 131 133 131 120 110 98 111 113 111 107 110 122 156 179 212 212 228 223 182 176 167 157 152 153 170 183 178 190 196 193 202 211 217 224 222 220
142 143 141 145 142 128 131 140 138 137 145 143 148 156 156 155 156 164 157 125 138 137 147 152 172 165 151 174 175 182 204 205 186 211 211 200 214 221 217 222 217 216 219
122 123 129 131 138 141 143 142 138 144 138 140 147 140 143 150 158 162 158 160 161 165 165 161 171 169 185 202 214 215 224 226 222 211 218 220 217 218 224 224 224 222 221
Height
1498 1504 1509 1513 1519 1525 1529 1534 1539 1544 1548 1551 1553 1555 1558 1559 1562 1565 1567 1570 1571 1573 1575 1577 1579 1581 1581 1581 1582 1582 1582 1582 1582 1582 1583 1585 1585 1585 1586 1586 1586 1586 1587
1491 1497 1503 1508 1513 1517 1523 1527 1532 1537 1542 1546 1548 1550 1552 1555 1559 1562 1563 1564 1566 1568 1570 1572 1573 1575 1575 1577 1577 1577 1577 1577 1576 1576 1577 1577 1579 1581 1584 1584 1584 1583 1583
1485 1492 1497 1502 1506 1509 1514 1521 1525 1529 1534 1538 1542 1542 1545 1549 1552 1556 1558 1559 1560 1562 1563 1563 1564 1566 1568 1569 1570 1570 1570 1572 1573 1572 1572 1573 1573 1574 1575 1576 1577 1578 1578
1478 1483 1489 1493 1498 1504 1508 1512 1517 1521 1526 1530 1534 1537 1539 1542 1545 1548 1551 1552 1554 1555 1555 1555 1556 1558 1558 1560 1562 1562 1564 1565 1564 1563 1566 1567 1568 1570 1569 1569 1568 1570 1570
1469 1475 1479 1485 1491 1496 1500 1504 1508 1514 1517 1522 1526 1529 1533 1536 1537 1540 1543 1544 1546 1546 1547 1548 1548 1548 1549 1551 1553 1555 1557 1558 1557 1557 1558 1560 1562 1560 1559 1561 1563 1563 1561
1463 1466 1472 1477 1482 1486 1491 1496 1500 1503 1508 1513 1515 1520 1524 1526 1529 1531 1533 1536 1538 1539 1539 1540 1540 1540 1541 1542 1543 1546 1548 1548 1547 1548 1549 1549 1549 1548 1550 1552 1553 1552 1554
1454 1459 1465 1469 1474 1479 1484 1489 1492 1495 1500 1502 1506 1510 1512 1514 1518 1521 1525 1528 1529 1529 1530 1530 1531 1530 1531 1532 1534 1537 1537 1538 1539 1541 1540 1538 1537 1538 1541 1541 1541 1547 1545
1450 1453 1459 1463 1467 1473 1478 1480 1484 1488 1490 1494 1497 1500 1502 1504 1507 1512 1517 1520 1520 1520 1519 1519 1520 1521 1523 1526 1527 1527 1526 1527 1528 1531 1530 1530 1529 1532 1536 1544 1544 1541 1542
1446 1449 1453 1456 1460 1464 1468 1472 1476 1480 1483 1485 1488 1491 1492 1494 1499 1504 1509 1511 1510 1508 1509 1512 1511 1511 1514 1518 1519 1519 1519 1518 1521 1521 1519 1517 1520 1524 1525 1522 1528 1530 1532
1439 1443 1448 1452 1454 1456 1460 1464 1469 1472 1475 1479 1481 1482 1484 1486 1489 1494 1499 1503 1502 1500 1503 1502 1502 1503 1506 1509 1510 1511 1507 1505 1509 1507 1507 1507 1508 1508 1509 1510 1514 1517 1520
1436 1440 1444 1446 1448 1450 1454 1458 1461 1465 1468 1471 1473 1476 1477 1478 1481 1484 1488 1490 1489 1493 1492 1493 1495 1496 1499 1500 1500 1499 1496 1500 1497 1494 1492 1491 1492 1492 1491 1492 1495 1500 1510
1433 1436 1439 1442 1444 1445 1448 1451 1454 1458 1461 1463 1465 1467 1468 1470 1472 1474 1477 1480 1484 1485 1483 1486 1487 1490 1490 1490 1490 1489 1490 1490 1490 1484 1482 1479 1479 1480 1480 1480 1467 1482 1496
1428 1430 1431 1435 1438 1440 1441 1444 1447 1450 1452 1454 1457 1457 1459 1462 1464 1466 1468 1472 1476 1477 1478 1479 1481 1482 1483 1483 1483 1482 1482 1483 1481 1477 1473 1471 1470 1470 1471 1472 1465 1471 1488
1424 1424 1425 1428 1430 1433 1436 1438 1440 1441 1443 1446 1448 1449 1453 1455 1456 1458 1461 1463 1467 1468 1470 1472 1472 1473 1474 1474 1474 1474 1474 1474 1472 1468 1464 1462 1462 1462 1456 1464 1459 1469 1481
1416 1417 1419 1421 1424 1426 1429 1431 1432 1435 1436 1438 1441 1445 1447 1448 1449 1451 1454 1456 1459 1461 1464 1465 1464 1465 1467 1467 1467 1466 1466 1465 1463 1460 1456 1453 1451 1450 1452 1461 1472 1476 1482
1411 1411 1412 1414 1416 1417 1420 1423 1426 1428 1429 1433 1437 1440 1441 1443 1444 1447 1449 1450 1453 1457 1457 1457 1459 1460 1461 1460 1459 1458 1456 1455 1455 1453 1453 1454 1454 1450 1455 1466 1468 1472 1482
1406 1406 1407 1409 1410 1410 1412 1414 1418 1421 1424 1429 1433 1435 1437 1439 1440 1441 1444 1446 1447 1448 1452 1453 1453 1455 1455 1453 1452 1450 1449 1448 1448 1450 1454 1453 1454 1457 1457 1466 1467 1476 1481
1401 1401 1402 1403 1405 1404 1407 1410 1413 1415 1419 1423 1426 1429 1431 1434 1435 1437 1439 1440 1443 1445 1446 1447 1447 1447 1448 1447 1447 1447 1446 1446 1447 1448 1450 1453 1455 1458 1458 1462 1467 1471 1478
1393 1394 1394 1396 1398 1399 1401 1405 1409 1411 1413 1417 1420 1423 1426 1429 1431 1432 1433 1435 1436 1439 1440 1441 1441 1443 1443 1444 1445 1444 1443 1444 1444 1445 1448 1452 1453 1458 1459 1458 1462 1469 1475
1390 1390 1389 1390 1390 1393 1396 1398 1402 1406 1410 1414 1416 1419 1421 1423 1425 1427 1427 1429 1431 1433 1434 1435 1438 1440 1441 1441 1440 1440 1441 1441 1441 1445 1446 1449 1452 1456 1458 1461 1465 1469 1475
1388 1387 1387 1386 1386 1388 1391 1396 1399 1404 1408 1411 1414 1417 1418 1420 1422 1423 1424 1426 1428 1430 1432 1434 1436 1438 1438 1437 1438 1436 1439 1440 1441 1443 1447 1449 1451 1453 1457 1462 1464 1467 1473
1384 1385 1384 1385 1386 1389 1392 1396 1400 1403 1408 1412 1414 1417 1418 1418 1419 1421 1422 1425 1427 1429 1431 1433 1434 1435 1435 1436 1437 1438 1438 1439 1440 1443 1447 1448 1453 1457 1460 1463 1466 1469 1474
1379 1384 1383 1385 1387 1389 1393 1396 1400 1404 1408 1412 1413 1414 1416 1417 1418 1419 1420 1423 1426 1428 1430 1431 1432 1436 1435 1434 1434 1437 1439 1439 1438 1440 1444 1450 1453 1456 1458 1463 1466 1467 1471
1377 1380 1382 1384 1387 1388 1392 1397 1402 1405 1407 1412 1414 1415 1417 1419 1421 1421 1424 1426 1427 1429 1430 1431 1431 1433 1435 1437 1437 1439 1439 1442 1444 1443 1447 1451 1455 1457 1460 1461 1464 1469 1470
1374 1378 1382 1386 1391 1393 1397 1401 1404 1407 1410 1413 1414 1414 1415 1417 1420 1422 1424 1427 1429 1429 1430 1430 1433 1433 1433 1437 1438 1440 1441 1443 1444 1446 1447 1449 1453 1455 1457 1460 1462 1463 1468
1376 1378 1382 1386 1392 1398 1401 1404 1408 1409 1412 1414 1414 1414 1415 1418 1420 1421 1422 1424 1425 1427 1427 1431 1433 1433 1434 1436 1438 1439 1441 1441 1443 1445 1447 1449 1449 1453 1454 1456 1459 1460 1464